Regional Weather Roundup
Issued by NWS Kansas City/Pleasant Hill, MO

Home | Current Version | Previous Version | Graphics & Text | Print | Product List | Glossary Off
Versions: 1 2 3 4 5 6 7 8 9 10 11 12 13 14 15 16 17 18 19 20 21 22 23 24 25 26 27 28 29 30 31 32 33 34 35 36 37 38 39 40 41 42 43 44 45 46 47 48 49 50

000
ASUS43 KEAX 280704
RWREAX

WEATHER ROUNDUP FOR EASTERN KANSAS AND NORTHWEST MISSOURI
NATIONAL WEATHER SERVICE KANSAS CITY/PLEASANT HILL MO
200 AM CDT THU MAY 28 2015

KSZ040-057-103>105-MOZ028-029-037-043-280800-
...KANSAS CITY METROPOLITAN AREA...

CITY           SKY/WX    TMP DP  RH WIND       PRES   REMARKS
K.C. INTL      MOCLDY    67  56  67 SE8       30.10R
K.C. DOWNTOWN  MOCLDY    68  58  70 E6        30.10R
LEES SUMMIT    CLOUDY    68  55  63 SE6       30.11S
OLATHE - IXD   MOCLDY    67  57  70 E5        30.10F
OLATHE - OJC   MOCLDY    68  56  65 SE6       30.10S
LAWRENCE       MOCLDY    65  57  75 E5        30.09F

$$

MOZ001>008-011>017-020>025-030>033-038>040-044>046-053-054-280800-
...NORTHERN AND CENTRAL MISSOURI...

CITY           SKY/WX    TMP DP  RH WIND       PRES   REMARKS
ST. JOSEPH     MOCLDY    62  57  83 CALM      30.10R
MOSBY          PTSUNNY   61  59  94 CALM      30.11S
WARRENSBURG    MOCLDY    63  57  82 E3        30.11S
WHITEMAN AFB   PTCLDY    64  57  78 E5        30.12R
CLINTON        CLOUDY    66  61  82 SE5       30.12F
SEDALIA        MOCLDY    64  57  78 SE7       30.14S
WARSAW         NOT AVBL
CHILLICOTHE      N/A     62  59  90 CALM      30.14R
KIRKSVILLE     MOCLDY    62  57  83 SE6       30.15F

$$

MOZ041-047>049-056>058-063>065-088>090-097-280800-
...EASTERN AND SOUTHERN MISSOURI...

CITY           SKY/WX    TMP DP  RH WIND       PRES   REMARKS
ST. LOUIS INTL MOCLDY    68  57  68 SE3       30.16R
SPIRIT OF STL  MOCLDY    61  60  97 CALM      30.14S
COLUMBIA       MOCLDY    65  57  75 E6        30.15R
JEFFERSON CITY MOCLDY    62  59  90 CALM      30.14S
ROLLA          MOCLDY    63  58  83 E7        30.14S
OSAGE BEACH    CLOUDY    63  57  82 CALM      30.14S
SPRINGFIELD    MOCLDY    69  64  84 SE8       30.12S
BRANSON        MOCLDY    66  64  94 CALM      30.13F
JOPLIN         MOCLDY    69  63  81 SE6       30.08F
WEST PLAINS    MOCLDY    67  64  90 E3        30.16R

$$

IAZ060-094-KSZ022-034>040-054-083-096-NEZ052-066-093-280800-
...KANSAS...SOUTHEAST NEBRASKA AND IOWA...

CITY           SKY/WX    TMP DP  RH WIND       PRES   REMARKS
TOPEKA         CLOUDY    65  60  84 E6        30.07F
MANHATTAN      CLOUDY    71  58  63 SE10      30.02F
EMPORIA        CLOUDY    67  60  78 SE8       30.05F
CHANUTE        MOCLDY    68  62  81 SE7       30.07F
WICHITA        CLOUDY    71  67  87 S7        30.02F THUNDER
OMAHA          CLOUDY    64  54  69 SE3       30.07S
LINCOLN        MOCLDY    66  53  63 CALM      30.05F
LAMONI         PTCLDY    67  57  70 S7        30.13R
DES MOINES     PTCLDY    66  58  75 S8        30.10F

$$



USA.gov is the U.S. government's official web portal to all federal, state and local government web resources and services.